Location: Arboyeti
(42.1122°N, 44.6017°E)
Time: 20:32:01
(UTC+00:00)

Cosmos 1680 Rocket - Pass Details

Date: 19 April 2021
Orbit: 759 x 782 km, 74.1° (Epoch: 17 May)

Event Time Altitude Azimuth Distance (km) Brightness Sun altitude
Rises 23:34:39 0° 339° (NNW) 3,263 7.1 -25.8°
Reaches altitude 10° 23:37:02 10° 338° (NNW) 2,334 6.3 -25.5°
Maximum altitude 23:42:21 82° 253° (WSW) 793 3.4 -24.8°
Enters shadow 23:43:11 64° 179° (S) 864 3.5 -24.7°
